CW5709 Weather Reports


Display with metric or nautical units.
time (UTC)temp
F
wind
direction
speed
MPH
gust
MPH
rain 1hr
in
rain 24hr
in
rain mn
in
humidity
%
barometer
mb
20260510133010 52 0.0 0.0 0.00 0.00 0.00 83 1018.6
20260510131518 52 0.0 0.0 0.00 0.00 0.00 82 1018.5
20260510130037 52 0.0 0.0 0.00 0.00 0.00 82 1018.5
20260510124527 52 0.0 0.0 0.00 0.00 0.00 82 1018.5
20260510123009 52 0.0 0.0 0.00 0.00 0.00 82 1018.2
20260510121512 53 0.0 0.0 0.00 0.00 0.00 82 1018.3
20260510120027 53 0.0 0.0 0.00 0.00 0.00 82 1018.4
20260510114522 53 0.0 0.0 0.00 0.00 0.00 82 1018.2
20260510113026 53 0.0 0.0 0.00 0.00 0.00 82 1018.0
20260510111510 53 0.0 0.0 0.00 0.00 0.00 82 1018.1
20260510110032 53 0.0 0.0 0.00 0.00 0.00 82 1018.0
20260510104521 53 0.0 0.0 0.00 0.00 0.00 83 1017.9
20260510103024 53 0.0 0.0 0.00 0.00 0.00 82 1017.6
20260510101532 53 0.0 0.0 0.00 0.00 0.00 82 1017.6
20260510100021 53 0.0 0.0 0.00 0.00 0.00 82 1017.4
20260510094521 53 0.0 0.0 0.00 0.00 0.00 83 1017.3
20260510091528 54 0.0 0.0 0.00 0.00 0.00 82 1017.2
20260510090029 54 0.0 0.0 0.00 0.00 0.00 81 1017.0
20260510084517 55 0.0 0.0 0.00 0.00 0.00 79 1016.9
20260510083024 55 0.0 0.0 0.00 0.00 0.00 80 1017.2
20260510080026 56 0.0 0.0 0.00 0.00 0.00 77 1017.0
20260510074529 56 0.0 0.0 0.00 0.00 0.00 77 1017.1
20260510073018 57 0.0 0.0 0.00 0.00 0.00 76 1017.0
20260510071524 57 0.0 0.0 0.00 0.00 0.00 75 1017.0
20260510070032 58 0.0 0.0 0.00 0.00 0.00 74 1017.0
20260510064532 58 0.0 0.0 0.00 0.00 0.00 74 1016.7
20260510063031 59 0.0 0.0 0.00 0.00 0.00 73 1016.5
20260510061523 59 0.0 0.0 0.00 0.00 0.00 71 1016.5
20260510060029 60 0.0 0.0 0.00 0.00 0.00 69 1016.5
20260510054526 61 0.0 0.0 0.00 0.00 0.00 68 1016.5
20260510053027 61 0.0 0.0 0.00 0.00 0.00 66 1016.4
20260510051521 62 0.0 0.0 0.00 0.00 0.00 65 1016.3
20260510050022 63 0.0 0.0 0.00 0.00 0.00 62 1016.2
20260510044515 64 0.0 0.0 0.00 0.00 0.00 61 1016.3
20260510043011 64 0.0 0.0 0.00 0.00 0.00 60 1016.1
20260510041517 65 0.0 0.0 0.00 0.00 0.00 57 1015.9
20260510040022 66 0.0 0.0 0.00 0.00 0.00 55 1015.7
20260510034527 68 0.0 0.0 0.00 0.00 0.00 52 1015.6
20260510033016 69 0.0 0.0 0.00 0.00 0.00 49 1015.3
20260510024520 73 0.0 0.0 0.00 0.00 0.00 46 1015.0
20260510023024 75 0.0 0.0 0.00 0.00 0.00 44 1014.9
20260510013021 76 0.0 0.0 0.00 0.00 0.00 32 1014.9
20260510011527 77 0.0 0.0 0.00 0.00 0.00 29 1014.9
20260510004516 77 0.0 0.0 0.00 0.00 0.00 33 1015.0
20260510001522 77 0.0 0.0 0.00 0.00 0.00 31 1015.3
20260510000034 77 0.0 0.0 0.00 0.00 0.00 31 1015.5
20260509234529 77 0.0 0.0 0.00 0.00 0.00 35 1015.6
20260509230026 78 0.0 0.0 0.00 0.00 0.00 38 1016.1
20260509223019 81 0.0 0.0 0.00 0.00 0.00 36 1016.5
20260509221525 81 0.0 0.0 0.00 0.00 0.00 36 1016.9
20260509220024 81 0.0 0.0 0.00 0.00 0.00 37 1017.1
20260509214528 80 0.0 0.0 0.00 0.00 0.00 38 1017.4
20260509211521 77 0.0 0.0 0.00 0.00 0.00 43 1017.8
20260509210023 77 0.0 0.0 0.00 0.00 0.00 44 1017.8
20260509204526 76 0.0 0.0 0.00 0.00 0.00 44 1017.9
20260509203034 76 0.0 0.0 0.00 0.00 0.00 44 1018.0
20260509194504 74 0.0 0.0 0.00 0.00 0.00 45 1018.6
20260509191514 71 0.0 0.0 0.00 0.00 0.00 49 1018.8
20260509190022 69 0.0 0.0 0.00 0.00 0.00 51 1018.9
20260509184515 67 0.0 0.0 0.00 0.00 0.00 56 1019.2
20260509181512 66 0.0 0.0 0.00 0.00 0.00 61 1019.4
20260509180019 64 0.0 0.0 0.00 0.00 0.00 62 1019.5
20260509174528 63 0.0 0.0 0.00 0.00 0.00 66 1019.5
20260509173006 62 0.0 0.0 0.00 0.00 0.00 68 1019.9
20260509171509 61 0.0 0.0 0.00 0.00 0.00 69 1020.0
20260509164519 59 0.0 0.0 0.00 0.00 0.00 72 1020.2
20260509163027 58 0.0 0.0 0.00 0.00 0.00 75 1020.3
20260509161507 57 0.0 0.0 0.00 0.00 0.00 78 1020.5
20260509160015 55 0.0 0.0 0.00 0.00 0.00 82 1020.5
20260509154518 54 0.0 0.0 0.00 0.00 0.00 86 1020.9
20260509153028 52 0.0 0.0 0.00 0.00 0.00 89 1020.8
20260509150009 49 0.0 0.0 0.00 0.00 0.00 91 1021.1
20260509144518 48 0.0 0.0 0.00 0.00 0.00 91 1021.1
20260509143020 47 0.0 0.0 0.00 0.00 0.00 91 1021.2
20260509140027 45 0.0 0.0 0.00 0.00 0.00 89 1021.1
20260509134526 44 0.0 0.0 0.00 0.00 0.00 88 1021.1